Location: Caltech
(34.1382°N, 118.1253°W)
Time: 08:42:49
(UTC-07:00)

Lacrosse 5 - Visible Passes

Search period start: 18 September 2014 00:00
Search period end: 28 September 2014 00:00
Orbit: 706 x 722 km, 57.0° (Epoch: 17 September)

Date Brightness Start Highest point End Pass type
(mag) Time Alt. Az. Time Alt. Az. Time Alt. Az.
18 Sep 4.8 03:08:39 12° NNE 03:08:58 12° NNE 03:10:40 10° NE visible
18 Sep 2.4 04:47:51 10° NNW 04:52:46 58° NE 04:57:42 10° SE visible
18 Sep 3.2 19:12:43 10° SSE 19:16:10 19° ESE 19:19:37 10° ENE visible
18 Sep 2.5 20:53:43 10° SW 20:58:37 54° NW 21:01:26 24° NNE visible
19 Sep 3.5 03:56:53 28° NNE 03:57:50 30° NE 04:02:13 10° ESE visible
19 Sep 2.4 05:36:07 10° WNW 05:40:40 37° WSW 05:45:14 10° S visible
19 Sep 1.7 19:58:50 10° SSW 20:03:49 76° SE 20:08:50 10° NE visible
19 Sep 4.3 21:43:43 10° W 21:47:09 18° NW 21:49:03 15° N visible
20 Sep 1.6 04:45:26 67° WNW 04:46:02 78° SW 04:51:02 10° SSE visible
20 Sep 3.5 20:47:34 10° WSW 20:52:01 31° NW 20:56:28 10° NNE visible
21 Sep 4.1 03:54:51 18° ESE 03:54:51 18° ESE 03:56:07 10° ESE visible
21 Sep 3.2 05:34:05 19° SW 05:34:05 19° SW 05:37:14 10° SSW visible
21 Sep 2.4 19:52:08 10° SW 19:57:05 60° NW 20:02:02 10° NNE visible
21 Sep 4.7 21:38:59 10° NW 21:40:52 12° NNW 21:42:44 10° N visible
22 Sep 4.1 04:43:26 12° S 04:43:26 12° S 04:43:52 10° SSE visible
22 Sep 4.3 20:41:56 10° W 20:45:34 20° NW 20:49:12 10° N visible
23 Sep 3.5 19:45:54 10° WSW 19:50:28 34° NW 19:55:01 10° NNE visible
24 Sep 4.6 20:37:00 10° WNW 20:39:15 13° NNW 20:41:30 10° N visible
25 Sep 4.2 19:40:10 10° W 19:43:58 21° NW 19:47:47 10° NNE visible
27 Sep 4.5 19:35:03 10° WNW 19:37:38 14° NNW 19:40:12 10° N visible
